PU3WIW-13 Weather Reports


time (UTC)temp
F
wind
direction
speed
knots
gust
knots
rain 1hr
in
rain 24hr
in
rain mn
in
humidity
%
barometer
mb
20260507180747 83 335 5.2 16.5 0.00 0.57 0.57 10 999.0
20260507180446 84 339 2.6 16.5 0.00 0.57 0.57 10 998.7
20260507180147 84 354 5.2 16.5 0.00 0.57 0.57 10 999.0
20260507175847 84 319 3.5 16.5 0.00 0.57 0.57 10 999.1
20260507175546 83 317 7.0 14.8 0.00 0.57 0.57 10 999.0
20260507175245 83 307 2.6 14.8 0.00 0.57 0.57 10 999.0
20260507174945 83 321 5.2 15.6 0.00 0.57 0.57 10 999.2
20260507174647 82 315 3.5 20.0 0.00 0.57 0.57 10 999.1
20260507174346 81 314 4.3 21.7 0.00 0.57 0.57 10 999.2
20260507174045 80 309 4.3 21.7 0.00 0.57 0.57 10 999.2
20260507173746 81 306 3.5 21.7 0.00 0.57 0.57 10 999.4
20260507173446 82 290 6.1 18.2 0.00 0.57 0.57 10 999.2
20260507173145 82 299 6.1 17.4 0.00 0.57 0.57 10 999.2
20260507172847 83 321 5.2 17.4 0.00 0.57 0.57 10 999.2
20260507172546 84 334 4.3 20.0 0.00 0.57 0.57 10 999.1
20260507172245 83 332 3.5 20.0 0.00 0.57 0.57 10 999.2
20260507171944 83 325 6.1 20.0 0.00 0.57 0.57 10 999.2
20260507171646 83 330 7.8 13.9 0.00 0.57 0.57 10 999.1
20260507171346 82 351 7.8 13.9 0.57 0.57 0.57 10 999.2
20260507171045 81 290 2.6 12.2 0.57 0.57 0.57 10 999.2
20260507170745 81 312 2.6 20.0 0.57 0.57 0.57 10 999.4
20260507170445 81 309 3.5 20.0 0.57 0.57 0.57 10 999.4
20260507170144 81 314 2.6 20.0 0.57 0.57 0.57 10 999.4
20260507165846 81 319 7.8 21.7 0.57 0.57 0.57 10 999.4
20260507165545 82 312 3.5 21.7 0.57 0.57 0.57 10 999.5
20260507165244 82 315 2.6 21.7 0.57 0.57 0.57 10 999.2
20260507164946 82 314 5.2 13.9 0.57 0.57 0.57 10 999.5
20260507164645 83 331 5.2 18.2 0.57 0.57 0.57 10 999.2
20260507164344 85 332 4.3 18.2 0.57 0.57 0.57 10 999.5
20260507164045 85 321 5.2 18.2 0.57 0.57 0.57 10 999.4
20260507163744 85 282 5.2 23.5 0.57 0.57 0.57 10 999.2
20260507163444 85 282 6.1 26.1 0.57 0.57 0.57 10 999.4
20260507163145 85 301 2.6 26.1 0.57 0.57 0.57 10 999.6
20260507162844 85 346 7.8 26.1 0.57 0.57 0.57 10 999.5
20260507162543 85 338 7.0 32.2 0.57 0.57 0.57 10 999.6
20260507162243 85 347 5.2 32.2 0.57 0.57 0.57 10 999.7
20260507161944 84 343 7.0 32.2 0.57 0.57 0.57 10 999.6
20260507161644 84 293 4.3 32.2 0.57 0.57 0.57 10 999.6
20260507161344 65 30 0.0 3.5 0.00 0.00 0.00 10 1008.5
20260507161044 65 30 0.0 3.5 0.00 0.00 0.00 10 1008.5
20260507160743 65 30 0.0 3.5 0.00 0.00 0.00 10 1008.5
20260507160444 65 30 0.0 3.5 0.00 0.00 0.00 10 1008.5
20260507160144 65 30 0.0 3.5 0.00 0.00 0.00 10 1008.5
20260507155843 65 30 0.0 3.5 0.00 0.00 0.00 10 1008.5
20260507155542 65 30 0.0 3.5 0.00 0.00 0.00 10 1008.5
20260507155244 65 30 0.0 3.5 0.00 0.00 0.00 10 1008.5
20260507154943 65 30 0.0 3.5 0.00 0.00 0.00 10 1008.5
20260507154643 65 30 0.0 3.5 0.00 0.00 0.00 10 1008.5
20260507154344 65 30 0.0 3.5 0.00 0.00 0.00 10 1008.5
20260507154044 65 30 0.0 3.5 0.00 0.00 0.00 10 1008.5
20260507153743 65 30 0.0 3.5 0.00 0.00 0.00 10 1008.5
20260507153443 65 30 0.0 3.5 0.00 0.00 0.00 10 1008.5
20260507153144 65 30 0.0 3.5 0.00 0.00 0.00 10 1008.5
20260507152844 65 30 0.0 3.5 0.00 0.00 0.00 10 1008.5
20260507152544 65 30 0.0 3.5 0.00 0.00 0.00 10 1008.5
20260507152244 65 30 0.0 3.5 0.00 0.00 0.00 10 1008.5
20260507151943 65 30 0.0 3.5 0.00 0.00 0.00 10 1008.5
20260507151643 65 30 0.0 3.5 0.00 0.00 0.00 10 1008.5
20260507151344 65 30 0.0 3.5 0.00 0.00 0.00 10 1008.5
20260507151043 65 30 0.0 3.5 0.00 0.00 0.00 10 1008.5
20260507150743 65 30 0.0 3.5 0.00 0.00 0.00 10 1008.5
20260507150444 65 30 0.0 3.5 0.00 0.00 0.00 10 1008.5
20260507150144 65 30 0.0 3.5 0.00 0.00 0.00 10 1008.5
20260507145843 65 30 0.0 3.5 0.00 0.00 0.00 10 1008.5
20260507145544 65 30 0.0 3.5 0.00 0.00 0.00 10 1008.5
20260507145244 65 30 0.0 3.5 0.00 0.00 0.00 10 1008.5
20260507144943 65 30 0.0 3.5 0.00 0.00 0.00 10 1008.5
20260507144642 65 30 0.0 3.5 0.00 0.00 0.00 10 1008.5
20260507144344 65 30 0.0 3.5 0.00 0.00 0.00 10 1008.5
20260507144043 65 30 0.0 3.5 0.00 0.00 0.00 10 1008.5
20260507143744 65 30 0.0 3.5 0.00 0.00 0.00 10 1008.5
20260507143444 65 30 0.0 3.5 0.00 0.00 0.00 10 1008.5
20260507143143 65 30 0.0 3.5 0.00 0.00 0.00 10 1008.5
20260507142844 65 30 0.0 3.5 0.00 0.00 0.00 10 1008.5
20260507142544 65 30 0.0 3.5 0.00 0.00 0.00 10 1008.5
20260507142243 65 30 0.0 3.5 0.00 0.00 0.00 10 1008.5
20260507141944 65 30 0.0 3.5 0.00 0.00 0.00 10 1008.5
20260507141644 65 30 0.0 3.5 0.00 0.00 0.00 10 1008.5
20260507141343 65 30 0.0 3.5 0.00 0.00 0.00 10 1008.5
20260507141044 65 30 0.0 3.5 0.00 0.00 0.00 10 1008.5
20260507140744 65 30 0.0 3.5 0.00 0.00 0.00 10 1008.5
20260507140443 65 30 0.0 3.5 0.00 0.00 0.00 10 1008.5
20260507140145 65 30 0.0 3.5 0.00 0.00 0.00 10 1008.5
20260507135844 65 30 0.0 3.5 0.00 0.00 0.00 10 1008.5
20260507135543 65 30 0.0 3.5 0.00 0.00 0.00 10 1008.5
20260507135244 65 30 0.0 3.5 0.00 0.00 0.00 10 1008.5
20260507134943 65 30 0.0 3.5 0.00 0.00 0.00 10 1008.5
20260507134644 65 30 0.0 3.5 0.00 0.00 0.00 10 1008.5
20260507134343 65 30 0.0 3.5 0.00 0.00 0.00 10 1008.5
20260507134043 65 30 0.0 3.5 0.00 0.00 0.00 10 1008.5
20260507133744 65 30 0.0 3.5 0.00 0.00 0.00 10 1008.5
20260507133444 65 30 0.0 3.5 0.00 0.00 0.00 10 1008.5
20260507133143 65 30 0.0 3.5 0.00 0.00 0.00 10 1008.5
20260507132844 65 30 0.0 3.5 0.00 0.00 0.00 10 1008.5
20260507132544 65 30 0.0 3.5 0.00 0.00 0.00 10 1008.5
20260507132243 65 30 0.0 3.5 0.00 0.00 0.00 10 1008.5
20260507131943 65 30 0.0 3.5 0.00 0.00 0.00 10 1008.5
20260507131644 65 30 0.0 3.5 0.00 0.00 0.00 10 1008.5
20260507131343 65 30 0.0 3.5 0.00 0.00 0.00 10 1008.5
20260507131044 65 30 0.0 3.5 0.00 0.00 0.00 10 1008.5
20260507130744 65 30 0.0 3.5 0.00 0.00 0.00 10 1008.5
20260507130443 65 30 0.0 3.5 0.00 0.00 0.00 10 1008.5
20260507130144 65 30 0.0 3.5 0.00 0.00 0.00 10 1008.5
20260507125844 65 30 0.0 3.5 0.00 0.00 0.00 10 1008.5
20260507125543 65 30 0.0 3.5 0.00 0.00 0.00 10 1008.5
20260507125243 65 30 0.0 3.5 0.00 0.00 0.00 10 1008.5
20260507124944 65 30 0.0 3.5 0.00 0.00 0.00 10 1008.5
20260507124643 65 30 0.0 3.5 0.00 0.00 0.00 10 1008.5
20260507124344 65 30 0.0 3.5 0.00 0.00 0.00 10 1008.5
20260507124044 65 30 0.0 3.5 0.00 0.00 0.00 10 1008.5
20260507123743 65 30 0.0 3.5 0.00 0.00 0.00 10 1008.5
20260507123445 65 30 0.0 3.5 0.00 0.00 0.00 10 1008.5
20260507123144 65 30 0.0 3.5 0.00 0.00 0.00 10 1008.5
20260507122844 65 30 0.0 3.5 0.00 0.00 0.00 10 1008.5
20260507122544 65 30 0.0 3.5 0.00 0.00 0.00 10 1008.5
20260507122243 65 30 0.0 3.5 0.00 0.00 0.00 10 1008.5
20260507121944 65 30 0.0 3.5 0.00 0.00 0.00 10 1008.5
20260507121644 65 30 0.0 3.5 0.00 0.00 0.00 10 1008.5
20260507121343 65 30 0.0 3.5 0.00 0.00 0.00 10 1008.5
20260507121044 65 30 0.0 3.5 0.00 0.00 0.00 10 1008.5
20260507120744 65 30 0.0 3.5 0.00 0.00 0.00 10 1008.5
20260507120444 65 30 0.0 3.5 0.00 0.00 0.00 10 1008.5
20260507120143 65 30 0.0 3.5 0.00 0.00 0.00 10 1008.5
20260507115843 65 30 0.0 3.5 0.00 0.00 0.00 10 1008.5
20260507115544 65 30 0.0 3.5 0.00 0.00 0.00 10 1008.5
20260507115243 65 30 0.0 3.5 0.00 0.00 0.00 10 1008.5
20260507114943 65 30 0.0 3.5 0.00 0.00 0.00 10 1008.5
20260507114644 65 30 0.0 3.5 0.00 0.00 0.00 10 1008.5
20260507114343 65 30 0.0 3.5 0.00 0.00 0.00 10 1008.5
20260507114043 65 30 0.0 3.5 0.00 0.00 0.00 10 1008.5
20260507113744 65 30 0.0 3.5 0.00 0.00 0.00 10 1008.5
20260507113443 65 30 0.0 3.5 0.00 0.00 0.00 10 1008.5
20260507113143 65 30 0.0 3.5 0.00 0.00 0.00 10 1008.5
20260507112844 65 30 0.0 3.5 0.00 0.00 0.00 10 1008.5
20260507112544 65 30 0.0 3.5 0.00 0.00 0.00 10 1008.5
20260507112243 65 30 0.0 3.5 0.00 0.00 0.00 10 1008.5
20260507111944 65 30 0.0 3.5 0.00 0.00 0.00 10 1008.5
20260507111644 65 30 0.0 3.5 0.00 0.00 0.00 10 1008.5
20260507111343 65 30 0.0 3.5 0.00 0.00 0.00 10 1008.5
20260507111044 65 30 0.0 3.5 0.00 0.00 0.00 10 1008.5
20260507110743 65 30 0.0 3.5 0.00 0.00 0.00 10 1008.5
20260507110444 65 30 0.0 3.5 0.00 0.00 0.00 10 1008.5
20260507110143 65 30 0.0 3.5 0.00 0.00 0.00 10 1008.5
20260507105843 65 30 0.0 3.5 0.00 0.00 0.00 10 1008.5
20260507105544 65 30 0.0 3.5 0.00 0.00 0.00 10 1008.5
20260507105244 65 30 0.0 3.5 0.00 0.00 0.00 10 1008.5
20260507104944 65 30 0.0 3.5 0.00 0.00 0.00 10 1008.5
20260507104643 65 30 0.0 3.5 0.00 0.00 0.00 10 1008.5
20260507104344 65 30 0.0 3.5 0.00 0.00 0.00 10 1008.5
20260507104044 65 30 0.0 3.5 0.00 0.00 0.00 10 1008.5
20260507103744 65 30 0.0 3.5 0.00 0.00 0.00 10 1008.5
20260507103443 65 30 0.0 3.5 0.00 0.00 0.00 10 1008.5
20260507103143 65 30 0.0 3.5 0.00 0.00 0.00 10 1008.5
20260507102844 65 30 0.0 3.5 0.00 0.00 0.00 10 1008.5
20260507102543 65 30 0.0 3.5 0.00 0.00 0.00 10 1008.5
20260507102243 65 30 0.0 3.5 0.00 0.00 0.00 10 1008.5
20260507101944 65 30 0.0 3.5 0.00 0.00 0.00 10 1008.5
20260507101644 65 30 0.0 3.5 0.00 0.00 0.00 10 1008.5
20260507101343 65 30 0.0 3.5 0.00 0.00 0.00 10 1008.5
20260507101044 65 30 0.0 3.5 0.00 0.00 0.00 10 1008.5
20260507100743 65 30 0.0 3.5 0.00 0.00 0.00 10 1008.5
20260507100443 65 30 0.0 3.5 0.00 0.00 0.00 10 1008.5
20260507100144 65 30 0.0 3.5 0.00 0.00 0.00 10 1008.5
20260507095844 65 30 0.0 3.5 0.00 0.00 0.00 10 1008.5
20260507095543 65 30 0.0 3.5 0.00 0.00 0.00 10 1008.5
20260507095243 65 30 0.0 3.5 0.00 0.00 0.00 10 1008.5
20260507094943 65 30 0.0 3.5 0.00 0.00 0.00 10 1008.5
20260507094644 65 30 0.0 3.5 0.00 0.00 0.00 10 1008.5
20260507094343 65 30 0.0 3.5 0.00 0.00 0.00 10 1008.5
20260507094044 65 30 0.0 3.5 0.00 0.00 0.00 10 1008.5
20260507093744 65 30 0.0 3.5 0.00 0.00 0.00 10 1008.5
20260507093443 65 30 0.0 3.5 0.00 0.00 0.00 10 1008.5
20260507093144 65 30 0.0 3.5 0.00 0.00 0.00 10 1008.5
20260507092843 65 30 0.0 3.5 0.00 0.00 0.00 10 1008.5
20260507092544 65 30 0.0 3.5 0.00 0.00 0.00 10 1008.5
20260507092244 65 30 0.0 3.5 0.00 0.00 0.00 10 1008.5
20260507091943 65 30 0.0 3.5 0.00 0.00 0.00 10 1008.5
20260507091645 65 30 0.0 3.5 0.00 0.00 0.00 10 1008.5
20260507091344 65 30 0.0 3.5 0.00 0.00 0.00 10 1008.5
20260507091043 65 30 0.0 3.5 0.00 0.00 0.00 10 1008.5
20260507090744 65 30 0.0 3.5 0.00 0.00 0.00 10 1008.5
20260507090444 65 30 0.0 3.5 0.00 0.00 0.00 10 1008.5
20260507090143 65 30 0.0 3.5 0.00 0.00 0.00 10 1008.5
20260507085845 65 30 0.0 3.5 0.00 0.00 0.00 10 1008.5
20260507085544 65 30 0.0 3.5 0.00 0.00 0.00 10 1008.5
20260507085243 65 30 0.0 3.5 0.00 0.00 0.00 10 1008.5
20260507084944 65 30 0.0 3.5 0.00 0.00 0.00 10 1008.5
20260507084644 65 30 0.0 3.5 0.00 0.00 0.00 10 1008.5
20260507084343 65 30 0.0 3.5 0.00 0.00 0.00 10 1008.5
20260507084044 65 30 0.0 3.5 0.00 0.00 0.00 10 1008.5
20260507083744 65 30 0.0 3.5 0.00 0.00 0.00 10 1008.5
20260507083444 65 30 0.0 3.5 0.00 0.00 0.00 10 1008.5
20260507083144 65 30 0.0 3.5 0.00 0.00 0.00 10 1008.5
20260507082843 65 30 0.0 3.5 0.00 0.00 0.00 10 1008.5
20260507082544 65 30 0.0 3.5 0.00 0.00 0.00 10 1008.5
20260507082244 65 30 0.0 3.5 0.00 0.00 0.00 10 1008.5
20260507081943 65 30 0.0 3.5 0.00 0.00 0.00 10 1008.5
20260507081645 65 30 0.0 3.5 0.00 0.00 0.00 10 1008.5
20260507081344 65 30 0.0 3.5 0.00 0.00 0.00 10 1008.5
20260507081043 65 30 0.0 3.5 0.00 0.00 0.00 10 1008.5
20260507080744 65 30 0.0 3.5 0.00 0.00 0.00 10 1008.5
20260507080444 65 30 0.0 3.5 0.00 0.00 0.00 10 1008.5
20260507080143 65 30 0.0 3.5 0.00 0.00 0.00 10 1008.5
20260507075844 65 30 0.0 3.5 0.00 0.00 0.00 10 1008.5
20260507075544 65 30 0.0 3.5 0.00 0.00 0.00 10 1008.5
20260507075243 65 30 0.0 3.5 0.00 0.00 0.00 10 1008.5
20260507074945 65 30 0.0 3.5 0.00 0.00 0.00 10 1008.5
20260507074644 65 30 0.0 3.5 0.00 0.00 0.00 10 1008.5
20260507074343 65 30 0.0 3.5 0.00 0.00 0.00 10 1008.5
20260507074044 65 30 0.0 3.5 0.00 0.00 0.00 10 1008.5
20260507073744 65 30 0.0 3.5 0.00 0.00 0.00 10 1008.5
20260507073443 65 30 0.0 3.5 0.00 0.00 0.00 10 1008.5
20260507073144 65 30 0.0 3.5 0.00 0.00 0.00 10 1008.5
20260507072844 65 30 0.0 3.5 0.00 0.00 0.00 10 1008.5
20260507072543 65 30 0.0 3.5 0.00 0.00 0.00 10 1008.5
20260507072245 65 30 0.0 3.5 0.00 0.00 0.00 10 1008.5
20260507071944 65 30 0.0 3.5 0.00 0.00 0.00 10 1008.5
20260507071643 65 30 0.0 3.5 0.00 0.00 0.00 10 1008.5
20260507071345 65 30 0.0 3.5 0.00 0.00 0.00 10 1008.5
20260507071044 65 30 0.0 3.5 0.00 0.00 0.00 10 1008.5
20260507070743 65 30 0.0 3.5 0.00 0.00 0.00 10 1008.5
20260507070445 65 30 0.0 3.5 0.00 0.00 0.00 10 1008.5
20260507070144 65 30 0.0 3.5 0.00 0.00 0.00 10 1008.5
20260507065843 65 30 0.0 3.5 0.00 0.00 0.00 10 1008.5
20260507065543 65 30 0.0 3.5 0.00 0.00 0.00 10 1008.5
20260507065244 65 30 0.0 3.5 0.00 0.00 0.00 10 1008.5
20260507064943 65 30 0.0 3.5 0.00 0.00 0.00 10 1008.5
20260507064643 65 30 0.0 3.5 0.00 0.00 0.00 10 1008.5
20260507064344 65 30 0.0 3.5 0.00 0.00 0.00 10 1008.5
20260507064043 65 30 0.0 3.5 0.00 0.00 0.00 10 1008.5
20260507063745 65 30 0.0 3.5 0.00 0.00 0.00 10 1008.5
20260507063444 65 30 0.0 3.5 0.00 0.00 0.00 10 1008.5
20260507063143 65 30 0.0 3.5 0.00 0.00 0.00 10 1008.5
20260507062843 65 30 0.0 3.5 0.00 0.00 0.00 10 1008.5
20260507062544 65 30 0.0 3.5 0.00 0.00 0.00 10 1008.5
20260507062244 65 30 0.0 3.5 0.00 0.00 0.00 10 1008.5
20260507061943 65 30 0.0 3.5 0.00 0.00 0.00 10 1008.5
20260507061644 65 30 0.0 3.5 0.00 0.00 0.00 10 1008.5
20260507061343 65 30 0.0 3.5 0.00 0.00 0.00 10 1008.5
20260507061043 65 30 0.0 3.5 0.00 0.00 0.00 10 1008.5
20260507060743 65 30 0.0 3.5 0.00 0.00 0.00 10 1008.5
20260507060444 65 30 0.0 3.5 0.00 0.00 0.00 10 1008.5
20260507060144 65 30 0.0 3.5 0.00 0.00 0.00 10 1008.5
20260507055843 65 30 0.0 3.5 0.00 0.00 0.00 10 1008.5
20260507055545 65 30 0.0 3.5 0.00 0.00 0.00 10 1008.5
20260507055244 65 30 0.0 3.5 0.00 0.00 0.00 10 1008.5
20260507054943 65 30 0.0 3.5 0.00 0.00 0.00 10 1008.5
20260507054645 65 30 0.0 3.5 0.00 0.00 0.00 10 1008.5
20260507054344 65 30 0.0 3.5 0.00 0.00 0.00 10 1008.5
20260507054043 65 30 0.0 3.5 0.00 0.00 0.00 10 1008.5
20260507053745 65 30 0.0 3.5 0.00 0.00 0.00 10 1008.5
20260507053444 65 30 0.0 3.5 0.00 0.00 0.00 10 1008.5
20260507053143 65 30 0.0 3.5 0.00 0.00 0.00 10 1008.5
20260507052845 65 30 0.0 3.5 0.00 0.00 0.00 10 1008.5
20260507052544 65 30 0.0 3.5 0.00 0.00 0.00 10 1008.5
20260507052243 65 30 0.0 3.5 0.00 0.00 0.00 10 1008.5
20260507051944 65 30 0.0 3.5 0.00 0.00 0.00 10 1008.5
20260507051643 65 30 0.0 3.5 0.00 0.00 0.00 10 1008.5
20260507051344 65 30 0.0 3.5 0.00 0.00 0.00 10 1008.5
20260507051043 65 30 0.0 3.5 0.00 0.00 0.00 10 1008.5
20260507050743 65 30 0.0 3.5 0.00 0.00 0.00 10 1008.5
20260507050444 65 30 0.0 3.5 0.00 0.00 0.00 10 1008.5
20260507050144 65 30 0.0 3.5 0.00 0.00 0.00 10 1008.5
20260507045843 65 30 0.0 3.5 0.00 0.00 0.00 10 1008.5
20260507045544 65 30 0.0 3.5 0.00 0.00 0.00 10 1008.5
20260507045244 65 30 0.0 3.5 0.00 0.00 0.00 10 1008.5
20260507044943 65 30 0.0 3.5 0.00 0.00 0.00 10 1008.5
20260507044644 65 30 0.0 3.5 0.00 0.00 0.00 10 1008.5
20260507044344 65 30 0.0 3.5 0.00 0.00 0.00 10 1008.5
20260507044043 65 30 0.0 3.5 0.00 0.00 0.00 10 1008.5
20260507043744 65 30 0.0 3.5 0.00 0.00 0.00 10 1008.5
20260507043444 65 30 0.0 3.5 0.00 0.00 0.00 10 1008.5
20260507043143 65 30 0.0 3.5 0.00 0.00 0.00 10 1008.5
20260507042845 65 30 0.0 3.5 0.00 0.00 0.00 10 1008.5
20260507042544 65 30 0.0 3.5 0.00 0.00 0.00 10 1008.5
20260507042243 65 30 0.0 3.5 0.00 0.00 0.00 10 1008.5
20260507041945 65 30 0.0 3.5 0.00 0.00 0.00 10 1008.5
20260507041644 65 30 0.0 3.5 0.00 0.00 0.00 10 1008.5
20260507041344 65 30 0.0 3.5 0.00 0.00 0.00 10 1008.5
20260507041043 65 30 0.0 3.5 0.00 0.00 0.00 10 1008.5
20260507040743 65 30 0.0 3.5 0.00 0.00 0.00 10 1008.5
20260507040444 65 30 0.0 3.5 0.00 0.00 0.00 10 1008.5
20260507040144 65 30 0.0 3.5 0.00 0.00 0.00 10 1008.5
20260507035843 65 30 0.0 3.5 0.00 0.00 0.00 10 1008.5
20260507035544 65 30 0.0 3.5 0.00 0.00 0.00 10 1008.5
20260507035244 65 30 0.0 3.5 0.00 0.00 0.00 10 1008.5
20260507034943 65 30 0.0 3.5 0.00 0.00 0.00 10 1008.5
20260507034642 65 30 0.0 3.5 0.00 0.00 0.00 10 1008.5
20260507034344 65 30 0.0 3.5 0.00 0.00 0.00 10 1008.5
20260507034043 65 30 0.0 3.5 0.00 0.00 0.00 10 1008.5
20260507033743 65 30 0.0 3.5 0.00 0.00 0.00 10 1008.5
20260507033443 65 30 0.0 3.5 0.00 0.00 0.00 10 1008.5
20260507033143 65 30 0.0 3.5 0.00 0.00 0.00 10 1008.5
20260507032843 65 30 0.0 3.5 0.00 0.00 0.00 10 1008.5
20260507032544 65 30 0.0 3.5 0.00 0.00 0.00 10 1008.5
20260507032243 65 30 0.0 3.5 0.00 0.00 0.00 10 1008.5
20260507031943 65 30 0.0 3.5 0.00 0.00 0.00 10 1008.5
20260507031644 65 30 0.0 3.5 0.00 0.00 0.00 10 1008.5
20260507031343 65 30 0.0 3.5 0.00 0.00 0.00 10 1008.5
20260507031043 65 30 0.0 3.5 0.00 0.00 0.00 10 1008.5
20260507030744 65 30 0.0 3.5 0.00 0.00 0.00 10 1008.5
20260507030443 65 30 0.0 3.5 0.00 0.00 0.00 10 1008.5
20260507030144 65 30 0.0 3.5 0.00 0.00 0.00 10 1008.5
20260507025843 65 30 0.0 3.5 0.00 0.00 0.00 10 1008.5
20260507025544 65 30 0.0 3.5 0.00 0.00 0.00 10 1008.5
20260507025244 65 30 0.0 3.5 0.00 0.00 0.00 10 1008.5
20260507024943 65 30 0.0 3.5 0.00 0.00 0.00 10 1008.5
20260507024643 65 30 0.0 3.5 0.00 0.00 0.00 10 1008.5
20260507024344 65 30 0.0 3.5 0.00 0.00 0.00 10 1008.5
20260507024043 65 30 0.0 3.5 0.00 0.00 0.00 10 1008.5
20260507023744 65 30 0.0 3.5 0.00 0.00 0.00 10 1008.5
20260507023443 65 30 0.0 3.5 0.00 0.00 0.00 10 1008.5
20260507023144 65 30 0.0 3.5 0.00 0.00 0.00 10 1008.5
20260507022844 65 30 0.0 3.5 0.00 0.00 0.00 10 1008.5
20260507022543 65 30 0.0 3.5 0.00 0.00 0.00 10 1008.5
20260507022245 65 30 0.0 3.5 0.00 0.00 0.00 10 1008.5
20260507021944 65 30 0.0 3.5 0.00 0.00 0.00 10 1008.5
20260507021643 65 30 0.0 3.5 0.00 0.00 0.00 10 1008.5
20260507021344 65 30 0.0 3.5 0.00 0.00 0.00 10 1008.5
20260507021044 65 30 0.0 3.5 0.00 0.00 0.00 10 1008.5
20260507020743 65 30 0.0 3.5 0.00 0.00 0.00 10 1008.5
20260507020444 65 30 0.0 3.5 0.00 0.00 0.00 10 1008.5
20260507020144 65 30 0.0 3.5 0.00 0.00 0.00 10 1008.5
20260507015843 65 30 0.0 3.5 0.00 0.00 0.00 10 1008.5
20260507015544 65 30 0.0 3.5 0.00 0.00 0.00 10 1008.5
20260507015244 65 30 0.0 3.5 0.00 0.00 0.00 10 1008.5
20260507014943 65 30 0.0 3.5 0.00 0.00 0.00 10 1008.5
20260507014643 65 30 0.0 3.5 0.00 0.00 0.00 10 1008.5
20260507014344 65 30 0.0 3.5 0.00 0.00 0.00 10 1008.5
20260507014043 65 30 0.0 3.5 0.00 0.00 0.00 10 1008.5
20260507013743 65 30 0.0 3.5 0.00 0.00 0.00 10 1008.5
20260507013444 65 30 0.0 3.5 0.00 0.00 0.00 10 1008.5
20260507013144 65 30 0.0 3.5 0.00 0.00 0.00 10 1008.5
20260507012844 65 30 0.0 3.5 0.00 0.00 0.00 10 1008.5
20260507012543 65 30 0.0 3.5 0.00 0.00 0.00 10 1008.5
20260507012243 65 30 0.0 3.5 0.00 0.00 0.00 10 1008.5
20260507011944 65 30 0.0 3.5 0.00 0.00 0.00 10 1008.5
20260507011644 65 30 0.0 3.5 0.00 0.00 0.00 10 1008.5
20260507011344 65 30 0.0 3.5 0.00 0.00 0.00 10 1008.5
20260507011043 65 30 0.0 3.5 0.00 0.00 0.00 10 1008.5
20260507010744 65 30 0.0 3.5 0.00 0.00 0.00 10 1008.5
20260507010443 65 30 0.0 3.5 0.00 0.00 0.00 10 1008.5
20260507010143 65 30 0.0 3.5 0.00 0.00 0.00 10 1008.5
20260507005844 65 30 0.0 3.5 0.00 0.00 0.00 10 1008.5
20260507005543 65 30 0.0 3.5 0.00 0.00 0.00 10 1008.5
20260507005243 65 30 0.0 3.5 0.00 0.00 0.00 10 1008.5
20260507004944 65 30 0.0 3.5 0.00 0.00 0.00 10 1008.5
20260507004644 65 30 0.0 3.5 0.00 0.00 0.00 10 1008.5
20260507004343 65 30 0.0 3.5 0.00 0.00 0.00 10 1008.5
20260507004044 65 30 0.0 3.5 0.00 0.00 0.00 10 1008.5
20260507003744 65 30 0.0 3.5 0.00 0.00 0.00 10 1008.5
20260507003443 65 30 0.0 3.5 0.00 0.00 0.00 10 1008.5
20260507003144 65 30 0.0 3.5 0.00 0.00 0.00 10 1008.5
20260507002844 65 30 0.0 3.5 0.00 0.00 0.00 10 1008.5
20260507002543 65 30 0.0 3.5 0.00 0.00 0.00 10 1008.5
20260507002243 65 30 0.0 3.5 0.00 0.00 0.00 10 1008.5
20260507001943 65 30 0.0 3.5 0.00 0.00 0.00 10 1008.5
20260507001644 65 30 0.0 3.5 0.00 0.00 0.00 10 1008.5
20260507001343 65 30 0.0 3.5 0.00 0.00 0.00 10 1008.5
20260507001043 65 30 0.0 3.5 0.00 0.00 0.00 10 1008.5
20260507000744 65 30 0.0 3.5 0.00 0.00 0.00 10 1008.5
20260507000443 65 30 0.0 3.5 0.00 0.00 0.00 10 1008.5
20260507000143 65 30 0.0 3.5 0.00 0.00 0.00 10 1008.5
20260506235844 65 30 0.0 3.5 0.00 0.00 0.00 10 1008.5
20260506235544 65 30 0.0 3.5 0.00 0.00 0.00 10 1008.5
20260506235243 65 30 0.0 3.5 0.00 0.00 0.00 10 1008.5
20260506234944 65 30 0.0 3.5 0.00 0.00 0.00 10 1008.5
20260506234644 65 30 0.0 3.5 0.00 0.00 0.00 10 1008.5
20260506234343 65 30 0.0 3.5 0.00 0.00 0.00 10 1008.5
20260506234044 65 30 0.0 3.5 0.00 0.00 0.00 10 1008.5
20260506233744 65 30 0.0 3.5 0.00 0.00 0.00 10 1008.5
20260506233443 65 30 0.0 3.5 0.00 0.00 0.00 10 1008.5
20260506233144 65 30 0.0 3.5 0.00 0.00 0.00 10 1008.5
20260506232844 65 30 0.0 3.5 0.00 0.00 0.00 10 1008.5
20260506232543 65 30 0.0 3.5 0.00 0.00 0.00 10 1008.5
20260506232244 65 30 0.0 3.5 0.00 0.00 0.00 10 1008.5
20260506231944 65 30 0.0 3.5 0.00 0.00 0.00 10 1008.5
20260506231643 65 30 0.0 3.5 0.00 0.00 0.00 10 1008.5
20260506231344 65 30 0.0 3.5 0.00 0.00 0.00 10 1008.5
20260506231044 65 30 0.0 3.5 0.00 0.00 0.00 10 1008.5
20260506230743 65 30 0.0 3.5 0.00 0.00 0.00 10 1008.5
20260506230443 65 30 0.0 3.5 0.00 0.00 0.00 10 1008.5
20260506230144 65 30 0.0 3.5 0.00 0.00 0.00 10 1008.5
20260506225844 65 30 0.0 3.5 0.00 0.00 0.00 10 1008.5
20260506225543 65 30 0.0 3.5 0.00 0.00 0.00 10 1008.5
20260506225243 65 30 0.0 3.5 0.00 0.00 0.00 10 1008.5
20260506224944 65 30 0.0 3.5 0.00 0.00 0.00 10 1008.5
20260506224644 65 30 0.0 3.5 0.00 0.00 0.00 10 1008.5
20260506224343 65 30 0.0 3.5 0.00 0.00 0.00 10 1008.5
20260506224043 65 30 0.0 3.5 0.00 0.00 0.00 10 1008.5
20260506223743 65 30 0.0 3.5 0.00 0.00 0.00 10 1008.5
20260506223443 65 30 0.0 3.5 0.00 0.00 0.00 10 1008.5
20260506223144 65 30 0.0 3.5 0.00 0.00 0.00 10 1008.5
20260506222843 65 30 0.0 3.5 0.00 0.00 0.00 10 1008.5
20260506222544 65 30 0.0 3.5 0.00 0.00 0.00 10 1008.5
20260506222244 65 30 0.0 3.5 0.00 0.00 0.00 10 1008.5
20260506221944 65 30 0.0 3.5 0.00 0.00 0.00 10 1008.5
20260506221644 65 30 0.0 3.5 0.00 0.00 0.00 10 1008.5
20260506221343 65 30 0.0 3.5 0.00 0.00 0.00 10 1008.5
20260506221044 65 30 0.0 3.5 0.00 0.00 0.00 10 1008.5
20260506220744 65 30 0.0 3.5 0.00 0.00 0.00 10 1008.5
20260506220443 65 30 0.0 3.5 0.00 0.00 0.00 10 1008.5
20260506220144 65 30 0.0 3.5 0.00 0.00 0.00 10 1008.5
20260506215844 65 30 0.0 3.5 0.00 0.00 0.00 10 1008.5
20260506215543 65 30 0.0 3.5 0.00 0.00 0.00 10 1008.5
20260506215244 65 30 0.0 3.5 0.00 0.00 0.00 10 1008.5
20260506214943 65 30 0.0 3.5 0.00 0.00 0.00 10 1008.5
20260506214644 65 30 0.0 3.5 0.00 0.00 0.00 10 1008.5
20260506214344 65 30 0.0 3.5 0.00 0.00 0.00 10 1008.5
20260506214043 65 30 0.0 3.5 0.00 0.00 0.00 10 1008.5
20260506213744 65 30 0.0 3.5 0.00 0.00 0.00 10 1008.5
20260506213444 65 30 0.0 3.5 0.00 0.00 0.00 10 1008.5
20260506213144 65 30 0.0 3.5 0.00 0.00 0.00 10 1008.5
20260506212844 65 30 0.0 3.5 0.00 0.00 0.00 10 1008.5
20260506212544 65 30 0.0 3.5 0.00 0.00 0.00 10 1008.5
20260506212243 65 30 0.0 3.5 0.00 0.00 0.00 10 1008.5
20260506211944 65 30 0.0 3.5 0.00 0.00 0.00 10 1008.5
20260506211644 65 30 0.0 3.5 0.00 0.00 0.00 10 1008.5
20260506211343 65 30 0.0 3.5 0.00 0.00 0.00 10 1008.5
20260506211044 65 30 0.0 3.5 0.00 0.00 0.00 10 1008.5
20260506210744 65 30 0.0 3.5 0.00 0.00 0.00 10 1008.5
20260506210443 65 30 0.0 3.5 0.00 0.00 0.00 10 1008.5
20260506210144 65 30 0.0 3.5 0.00 0.00 0.00 10 1008.5
20260506205844 65 30 0.0 3.5 0.00 0.00 0.00 10 1008.5
20260506205543 65 30 0.0 3.5 0.00 0.00 0.00 10 1008.5
20260506205243 65 30 0.0 3.5 0.00 0.00 0.00 10 1008.5
20260506204944 65 30 0.0 3.5 0.00 0.00 0.00 10 1008.5
20260506204643 65 30 0.0 3.5 0.00 0.00 0.00 10 1008.5
20260506204345 65 30 0.0 3.5 0.00 0.00 0.00 10 1008.5
20260506204044 65 30 0.0 3.5 0.00 0.00 0.00 10 1008.5
20260506203743 65 30 0.0 3.5 0.00 0.00 0.00 10 1008.5
20260506203443 65 30 0.0 3.5 0.00 0.00 0.00 10 1008.5
20260506203144 65 30 0.0 3.5 0.00 0.00 0.00 10 1008.5
20260506202843 65 30 0.0 3.5 0.00 0.00 0.00 10 1008.5
20260506202544 65 30 0.0 3.5 0.00 0.00 0.00 10 1008.5
20260506202244 65 30 0.0 3.5 0.00 0.00 0.00 10 1008.5
20260506201943 65 30 0.0 3.5 0.00 0.00 0.00 10 1008.5
20260506201643 65 30 0.0 3.5 0.00 0.00 0.00 10 1008.5
20260506201344 65 30 0.0 3.5 0.00 0.00 0.00 10 1008.5
20260506201043 65 30 0.0 3.5 0.00 0.00 0.00 10 1008.5
20260506200744 65 30 0.0 3.5 0.00 0.00 0.00 10 1008.5
20260506200444 65 30 0.0 3.5 0.00 0.00 0.00 10 1008.5
20260506200143 65 30 0.0 3.5 0.00 0.00 0.00 10 1008.5
20260506195845 65 30 0.0 3.5 0.00 0.00 0.00 10 1008.5
20260506195544 65 30 0.0 3.5 0.00 0.00 0.00 10 1008.5
20260506195243 65 30 0.0 3.5 0.00 0.00 0.00 10 1008.5
20260506194945 65 30 0.0 3.5 0.00 0.00 0.00 10 1008.5
20260506194643 65 30 0.0 3.5 0.00 0.00 0.00 10 1008.5
20260506194344 65 30 0.0 3.5 0.00 0.00 0.00 10 1008.5
20260506194044 65 30 0.0 3.5 0.00 0.00 0.00 10 1008.5
20260506193743 65 30 0.0 3.5 0.00 0.00 0.00 10 1008.5
20260506193444 65 30 0.0 3.5 0.00 0.00 0.00 10 1008.5
20260506193144 65 30 0.0 3.5 0.00 0.00 0.00 10 1008.5
20260506192843 65 30 0.0 3.5 0.00 0.00 0.00 10 1008.5
20260506192545 65 30 0.0 3.5 0.00 0.00 0.00 10 1008.5
20260506192244 65 30 0.0 3.5 0.00 0.00 0.00 10 1008.5
20260506191943 65 30 0.0 3.5 0.00 0.00 0.00 10 1008.5
20260506191645 65 30 0.0 3.5 0.00 0.00 0.00 10 1008.5
20260506191344 65 30 0.0 3.5 0.00 0.00 0.00 10 1008.5
20260506191043 65 30 0.0 3.5 0.00 0.00 0.00 10 1008.5
20260506190744 65 30 0.0 3.5 0.00 0.00 0.00 10 1008.5
20260506190444 65 30 0.0 3.5 0.00 0.00 0.00 10 1008.5
20260506190143 65 30 0.0 3.5 0.00 0.00 0.00 10 1008.5
20260506185845 65 30 0.0 3.5 0.00 0.00 0.00 10 1008.5
20260506185544 65 30 0.0 3.5 0.00 0.00 0.00 10 1008.5
20260506185244 65 30 0.0 3.5 0.00 0.00 0.00 10 1008.5
20260506184943 65 30 0.0 3.5 0.00 0.00 0.00 10 1008.5
20260506184644 65 30 0.0 3.5 0.00 0.00 0.00 10 1008.5
20260506184344 65 30 0.0 3.5 0.00 0.00 0.00 10 1008.5
20260506184044 65 30 0.0 3.5 0.00 0.00 0.00 10 1008.5
20260506183743 65 30 0.0 3.5 0.00 0.00 0.00 10 1008.5
20260506183444 65 30 0.0 3.5 0.00 0.00 0.00 10 1008.5
20260506183144 65 30 0.0 3.5 0.00 0.00 0.00 10 1008.5
20260506182843 65 30 0.0 3.5 0.00 0.00 0.00 10 1008.5
20260506182544 65 30 0.0 3.5 0.00 0.00 0.00 10 1008.5
20260506182244 65 30 0.0 3.5 0.00 0.00 0.00 10 1008.5
20260506181944 65 30 0.0 3.5 0.00 0.00 0.00 10 1008.5
20260506181644 65 30 0.0 3.5 0.00 0.00 0.00 10 1008.5
20260506181344 65 30 0.0 3.5 0.00 0.00 0.00 10 1008.5
20260506181043 65 30 0.0 3.5 0.00 0.00 0.00 10 1008.5